Вернуться в каталог

GEESAT 6-07

АктивенСвязьLEO
NORAD 65719·PAYLOAD·🇨🇳 China

Запущен Sep 24, 2025 с Yellow Sea Launch Area

Loading…

Ближайшие Пролёты (ближайшие 24 часа)

TLE

СвежийSource: Space-Track

Эпоха: Sep 13, 2026, 23:49 UTC

1 65719U 25214H   26256.99302665  .00001222  00000-0  17385-3 0  9997
2 65719  49.9795 256.3307 0009806 218.3673 141.6569 14.83587409 52707

Отслеживайте GEESAT 6-07 в реальном времени с AllMySat

Download on the App Store